Weather in Nizhneirginskoye

Russia / Sverdlovsk Oblast     56°51′50″N   57°25′08″E
temp.,
°C
wind,
m/s
gust,
m/s
humid.,
%
clouds,
%
prec.,
mm/h
press.,
hPa
HPBL,
m
13 april, tue
tue1323:00+3n119597 0.0 104110
02:00+1ese119718 0.0 104016
05:000ese119611 0.0 104117
08:00+4ese248995 0.0 1041110
11:00+8se357375 0.0 1039362
14:00+12sse23636 0.0 1037648
17:00+14sw346424 0.0 1036923
20:00+10ssw2591100 0.0 103594
14 april, wed
wed1423:00+8sw3995100 0.0 1034199
02:00+7sw3109185 0.0 1033207
05:00+6sw399187 0.0 1033172
08:00+8sw3987100 0.0 1033232
11:00+13wsw3667100 0.0 1032438
14:00+16wsw355931 0.0 1030850
17:00+16wsw35575 0.0 1029913
20:00+12sw22797 0.0 102822
15 april, thu
thu1523:00+10sw228552 0.0 102823
02:00+8sw228881 0.0 102725
05:00+7sw259164 0.0 102674
08:00+9sw398233 0.0 1025258
11:00+14sw48465 0.0 1023661
14:00+15sw46355 0.0 10221010
17:00+16wsw473820 0.0 10201145
20:00+11sw22625 0.0 101932
16 april, fri
fri1623:00+9wsw23740 0.0 101955
02:00+7wsw357845 0.0 101874
05:00+8w257899 0.0 101797
08:00+7n3694100 0.0 1017279
11:00+6nne5891100 0.0 1018488
14:00+5ne4790100 0.9 1019515
17:00+2ne5994100 1.6 1020549
20:00+3ne489096 0.1 1020654
17 april, sat
sat1723:00+2ene389020 0.1 1021491
02:00−1ne23955 0.0 102074
05:00−1ne01955 0.0 102010
08:00+1nnw367551 0.0 1019400
11:00+4nnw5746100 0.0 10181927
14:00+3nnw71057100 1.0 10181741
17:00+2nnw8104132 1.3 10192094
20:00−2nnw6116616 0.0 10211160